Total_Precipitation_Accumulation
0.19 0.20 0.22 0.28 0.25 0.18 0.14 0.06 0.04 0.05 0.06 0.04 0.04 0.03 0.03 0.04 0.06 0.09 0.06 0.04 0.05 0.08 0.15 0.24 0.26 0.28 0.28 0.25 0.20 0.16 0.16 0.21 0.27 0.30 0.29 0.29 0.28 0.22 0.22 0.25 0.28 0.30 0.32 0.29 0.27 0.19 0.13 0.09 0.05
0.18 0.26 0.38 0.42 0.29 0.17 0.09 0.06 0.05 0.05 0.05 0.05 0.05 0.06 0.06 0.07 0.06 0.06 0.08 0.07 0.06 0.10 0.18 0.23 0.29 0.30 0.30 0.26 0.22 0.20 0.19 0.23 0.29 0.31 0.32 0.32 0.30 0.22 0.24 0.29 0.27 0.29 0.28 0.21 0.16 0.12 0.10 0.06 0.04
0.23 0.35 0.56 0.47 0.29 0.18 0.08 0.05 0.06 0.05 0.05 0.07 0.10 0.11 0.15 0.15 0.10 0.09 0.10 0.09 0.10 0.14 0.21 0.28 0.33 0.35 0.34 0.30 0.26 0.24 0.24 0.29 0.33 0.35 0.36 0.34 0.34 0.29 0.29 0.28 0.24 0.23 0.21 0.16 0.12 0.08 0.07 0.05 0.04
0.35 0.56 0.66 0.49 0.25 0.11 0.07 0.05 0.06 0.07 0.06 0.07 0.14 0.22 0.27 0.21 0.15 0.14 0.15 0.13 0.16 0.21 0.29 0.38 0.41 0.43 0.40 0.37 0.33 0.30 0.30 0.33 0.36 0.38 0.40 0.39 0.40 0.39 0.36 0.29 0.21 0.16 0.13 0.11 0.11 0.07 0.05 0.05 0.05
0.56 0.75 0.67 0.45 0.21 0.09 0.06 0.06 0.06 0.09 0.08 0.08 0.15 0.29 0.38 0.31 0.27 0.28 0.25 0.22 0.23 0.27 0.37 0.46 0.53 0.55 0.50 0.43 0.41 0.38 0.41 0.44 0.43 0.40 0.44 0.49 0.46 0.44 0.41 0.29 0.18 0.12 0.10 0.09 0.09 0.08 0.05 0.06 0.05
0.82 0.79 0.64 0.42 0.18 0.08 0.05 0.06 0.08 0.10 0.11 0.10 0.17 0.34 0.48 0.48 0.48 0.51 0.44 0.37 0.35 0.34 0.40 0.51 0.59 0.57 0.56 0.54 0.49 0.46 0.47 0.48 0.50 0.48 0.53 0.60 0.55 0.43 0.38 0.28 0.17 0.13 0.10 0.09 0.09 0.10 0.08 0.08 0.07
0.85 0.70 0.50 0.31 0.17 0.11 0.05 0.05 0.08 0.11 0.12 0.14 0.16 0.39 0.57 0.68 0.72 0.74 0.71 0.64 0.57 0.53 0.55 0.59 0.62 0.58 0.54 0.49 0.47 0.46 0.50 0.49 0.47 0.48 0.52 0.55 0.55 0.44 0.36 0.25 0.18 0.14 0.13 0.12 0.10 0.10 0.10 0.09 0.08
0.82 0.85 0.49 0.29 0.19 0.15 0.10 0.09 0.07 0.11 0.14 0.15 0.21 0.41 0.61 0.75 0.92 1.04 1.01 1.03 0.91 0.82 0.76 0.71 0.71 0.68 0.58 0.50 0.47 0.47 0.48 0.44 0.43 0.41 0.35 0.34 0.34 0.33 0.32 0.21 0.17 0.16 0.15 0.13 0.11 0.11 0.11 0.08 0.06
0.88 1.00 0.56 0.26 0.20 0.17 0.17 0.16 0.11 0.09 0.16 0.22 0.25 0.36 0.57 0.80 1.08 1.35 1.33 1.32 1.23 1.09 0.98 0.88 0.84 0.80 0.74 0.64 0.54 0.51 0.50 0.45 0.41 0.38 0.29 0.28 0.35 0.33 0.27 0.14 0.13 0.14 0.15 0.13 0.11 0.11 0.10 0.07 0.04
0.97 0.87 0.42 0.19 0.19 0.21 0.23 0.23 0.19 0.16 0.20 0.29 0.38 0.43 0.68 1.00 1.23 1.43 1.47 1.32 1.26 1.19 1.08 0.99 0.94 0.89 0.86 0.73 0.61 0.59 0.53 0.47 0.40 0.36 0.35 0.32 0.35 0.35 0.28 0.20 0.13 0.14 0.13 0.12 0.12 0.12 0.11 0.07 0.05
0.74 0.54 0.32 0.26 0.24 0.27 0.30 0.29 0.27 0.25 0.24 0.26 0.34 0.45 0.71 1.06 1.39 1.41 1.55 1.44 1.32 1.31 1.27 1.14 1.04 0.97 0.90 0.86 0.71 0.65 0.57 0.53 0.46 0.40 0.39 0.36 0.40 0.40 0.34 0.30 0.21 0.18 0.13 0.12 0.13 0.13 0.09 0.08 0.09
0.54 0.37 0.36 0.37 0.33 0.36 0.35 0.32 0.30 0.27 0.23 0.24 0.34 0.44 0.65 0.91 1.25 1.44 1.50 1.54 1.39 1.33 1.36 1.22 1.13 1.02 0.95 0.87 0.80 0.72 0.65 0.56 0.49 0.42 0.37 0.39 0.42 0.38 0.32 0.29 0.26 0.24 0.19 0.16 0.15 0.14 0.11 0.10 0.09
0.49 0.39 0.41 0.45 0.42 0.41 0.40 0.38 0.34 0.27 0.23 0.29 0.45 0.60 0.70 0.84 1.06 1.38 1.51 1.54 1.46 1.32 1.34 1.33 1.20 1.10 0.95 0.89 0.88 0.77 0.65 0.55 0.51 0.49 0.42 0.36 0.35 0.33 0.33 0.28 0.29 0.27 0.24 0.22 0.19 0.16 0.13 0.12 0.09
0.43 0.42 0.49 0.55 0.51 0.46 0.51 0.45 0.41 0.33 0.30 0.40 0.56 0.68 0.81 0.93 1.03 1.30 1.46 1.56 1.38 1.25 1.27 1.31 1.32 1.25 1.09 0.89 0.84 0.82 0.69 0.60 0.57 0.53 0.44 0.39 0.36 0.32 0.31 0.30 0.28 0.27 0.23 0.20 0.20 0.18 0.16 0.13 0.11
0.51 0.56 0.63 0.66 0.61 0.55 0.63 0.68 0.45 0.34 0.36 0.42 0.53 0.67 0.82 1.00 1.17 1.29 1.34 1.50 1.46 1.27 1.24 1.30 1.33 1.39 1.26 1.05 0.91 0.88 0.78 0.68 0.60 0.55 0.56 0.52 0.46 0.39 0.34 0.32 0.28 0.26 0.28 0.26 0.23 0.23 0.19 0.15 0.12
0.85 0.81 0.76 0.65 0.61 0.59 0.75 0.77 0.46 0.35 0.40 0.43 0.48 0.63 0.78 0.96 1.15 1.25 1.28 1.43 1.51 1.42 1.28 1.31 1.33 1.44 1.42 1.24 1.07 0.95 0.87 0.77 0.67 0.58 0.60 0.64 0.60 0.55 0.49 0.45 0.38 0.36 0.36 0.37 0.31 0.27 0.26 0.19 0.15
0.97 0.75 0.57 0.53 0.55 0.61 0.69 0.62 0.49 0.39 0.39 0.45 0.49 0.57 0.76 0.91 1.02 1.13 1.20 1.34 1.48 1.48 1.40 1.35 1.32 1.38 1.47 1.46 1.34 1.17 1.03 0.88 0.78 0.65 0.60 0.63 0.64 0.63 0.58 0.52 0.53 0.54 0.48 0.43 0.41 0.33 0.31 0.27 0.22
0.58 0.44 0.38 0.40 0.43 0.48 0.53 0.48 0.50 0.48 0.44 0.41 0.44 0.49 0.68 0.85 0.87 0.96 1.07 1.28 1.47 1.59 1.48 1.43 1.40 1.43 1.57 1.66 1.64 1.45 1.26 1.09 0.94 0.82 0.71 0.69 0.68 0.68 0.68 0.63 0.63 0.64 0.61 0.54 0.48 0.43 0.39 0.35 0.33
0.45 0.40 0.35 0.27 0.30 0.40 0.42 0.44 0.53 0.56 0.47 0.39 0.41 0.50 0.56 0.70 0.80 0.88 0.99 1.18 1.36 1.62 1.57 1.42 1.46 1.47 1.59 1.70 1.69 1.56 1.35 1.29 1.16 1.02 0.94 0.85 0.80 0.78 0.80 0.76 0.77 0.78 0.74 0.67 0.65 0.63 0.55 0.47 0.47
0.52 0.48 0.41 0.34 0.32 0.41 0.44 0.48 0.49 0.50 0.46 0.40 0.39 0.47 0.45 0.52 0.70 0.83 0.96 1.12 1.20 1.43 1.58 1.49 1.49 1.55 1.50 1.55 1.74 1.85 1.75 1.58 1.45 1.29 1.14 1.03 0.93 0.87 0.85 0.86 0.87 0.85 0.85 0.82 0.77 0.75 0.70 0.64 0.62
0.55 0.43 0.41 0.50 0.49 0.52 0.54 0.57 0.48 0.43 0.43 0.37 0.34 0.41 0.40 0.44 0.62 0.77 0.87 1.12 1.18 1.35 1.54 1.56 1.56 1.63 1.56 1.63 1.98 2.19 2.18 1.90 1.67 1.49 1.31 1.18 1.12 1.07 0.99 0.90 0.88 0.86 0.88 0.86 0.86 0.88 0.89 0.84 0.79
0.61 0.37 0.40 0.53 0.69 0.73 0.57 0.71 0.51 0.45 0.43 0.38 0.33 0.36 0.41 0.46 0.56 0.66 0.76 1.03 1.16 1.28 1.46 1.52 1.64 1.71 1.73 1.77 1.92 1.98 1.90 1.72 1.53 1.52 1.48 1.39 1.31 1.22 1.16 1.09 1.01 0.95 0.91 0.86 0.91 0.96 0.98 1.01 0.96
0.59 0.46 0.51 0.60 0.76 0.76 0.46 0.59 0.53 0.46 0.48 0.48 0.46 0.47 0.50 0.52 0.59 0.68 0.71 0.82 0.99 1.19 1.39 1.43 1.51 1.60 1.68 1.67 1.77 1.95 1.84 1.67 1.58 1.56 1.51 1.43 1.41 1.34 1.26 1.20 1.18 1.12 1.07 1.04 1.04 1.05 1.06 1.06 1.04
0.65 0.77 0.77 0.76 1.00 0.99 0.47 0.48 0.51 0.52 0.53 0.53 0.53 0.54 0.54 0.54 0.60 0.67 0.68 0.73 0.84 1.01 1.27 1.37 1.47 1.55 1.63 1.61 1.64 1.82 1.75 1.58 1.43 1.38 1.40 1.33 1.30 1.24 1.19 1.16 1.15 1.12 1.09 1.07 1.05 1.06 1.06 1.05 1.02
0.98 1.29 1.46 1.36 1.23 0.81 0.38 0.43 0.55 0.51 0.48 0.53 0.59 0.59 0.57 0.55 0.57 0.62 0.67 0.76 0.81 0.92 1.05 1.10 1.20 1.30 1.43 1.48 1.49 1.61 1.65 1.60 1.46 1.29 1.27 1.24 1.18 1.09 1.04 1.05 1.05 1.08 1.07 1.07 1.07 1.06 1.03 1.05 1.04
0.91 1.06 1.19 1.00 0.68 0.44 0.36 0.48 0.52 0.43 0.46 0.53 0.60 0.61 0.55 0.55 0.60 0.59 0.64 0.76 0.83 0.91 0.91 0.86 0.91 1.05 1.15 1.18 1.20 1.30 1.34 1.40 1.39 1.29 1.18 1.15 1.09 1.02 1.00 1.03 1.07 1.11 1.12 1.07 1.07 1.05 1.01 1.03 1.01
0.84 0.83 0.68 0.84 0.62 0.51 0.44 0.44 0.45 0.42 0.45 0.47 0.51 0.55 0.55 0.55 0.56 0.60 0.67 0.73 0.74 0.79 0.80 0.78 0.78 0.84 0.90 1.01 1.03 1.12 1.12 1.13 1.20 1.19 1.13 1.12 1.07 1.00 0.97 1.00 1.00 1.01 1.02 0.99 1.00 0.99 0.94 0.91 0.91
0.70 0.65 0.79 1.12 0.97 0.71 0.43 0.42 0.58 0.50 0.47 0.50 0.50 0.52 0.56 0.54 0.56 0.64 0.73 0.76 0.75 0.75 0.74 0.70 0.71 0.74 0.79 0.87 0.95 1.00 1.01 1.04 1.09 1.08 1.00 0.96 0.95 0.92 0.91 0.92 0.91 0.89 0.88 0.89 0.89 0.86 0.81 0.79 0.76
0.65 0.73 0.82 0.84 0.69 0.72 0.55 0.54 0.53 0.44 0.41 0.43 0.43 0.46 0.49 0.49 0.53 0.62 0.73 0.79 0.77 0.69 0.64 0.64 0.63 0.65 0.69 0.74 0.79 0.82 0.83 0.88 0.96 0.96 0.94 0.89 0.82 0.76 0.76 0.80 0.81 0.76 0.73 0.72 0.73 0.72 0.73 0.73 0.70
0.52 0.53 0.65 0.92 0.66 0.54 0.56 0.56 0.43 0.34 0.31 0.32 0.33 0.36 0.39 0.42 0.47 0.54 0.59 0.62 0.63 0.62 0.62 0.65 0.63 0.63 0.63 0.67 0.71 0.74 0.73 0.71 0.78 0.82 0.85 0.82 0.78 0.72 0.70 0.71 0.73 0.70 0.65 0.63 0.64 0.64 0.65 0.70 0.71